Home   Weather   Cayenne   Past weeks

Flag for French Guiana Past Weather in Cayenne, French Guiana — Yesterday and Last 2 Weeks

Now
82 °F

Clear.


Feels Like: 88 °F
Forecast: N/A
Wind: 3 mph from East

Location: Cayenne / Rochambeau

Current Time: Sep 25, 2016 at 7:32:29 PM

Latest Report: Sep 25, 2016 at 7:00 PM


Visibility: 10 mi

Pressure: 29.86 "Hg

Humidity: 74%

Dew Point: 73 °F

Location of CayenneLocation

Past Weather in Cayenne — Graph

°F

Cayenne Temperature Yesterday

Maximum temperature yesterday: 91 °F (at 12:30 PM)
Minimum temperature yesterday: 72 °F (at 6:30 AM)
Average temperature yesterday: 82 °F

High & Low Weather Summary for the Past Weeks

 TemperatureHumidityPressure
High91 °F (Sep 11, 12:00 PM)100% (Sep 10, 11:00 PM)30.01 "Hg (Sep 10, 11:00 PM)
Low70 °F (Sep 25, 5:00 AM)49% (Sep 23, 3:30 PM)29.80 "Hg (Sep 15, 5:00 PM)
Average81 °F82%29.90 "Hg
* Reported Sep 10 6:00 PM — Sep 25 6:30 PM, Cayenne, Weather by CustomWeather, © 2016

Note: Actual official high and low records may vary slightly from our data, if they occured in-between our weather recording intervals... More about our weather records

Advertising

Cayenne Weather History for the Previous 24 Hours

Scroll right to see more
 ConditionsComfort  
Time TempWeatherWind HumidityBarometerVisibility
6:30 PM
Sun, Sep 25
82 °FClear.5 mph74%29.86 "Hg10 mi
6:00 PM84 °FSunny.8 mph70%29.86 "Hg10 mi
5:30 PM86 °FSunny.12 mph62%29.86 "Hg10 mi
5:00 PM88 °FSunny.13 mph59%29.86 "Hg10 mi
4:30 PM88 °FPassing clouds.12 mph59%29.83 "HgN/A
4:00 PM88 °FSunny.14 mph59%29.83 "Hg10 mi
3:30 PM90 °FSunny.14 mph55%29.86 "Hg10 mi
3:00 PM90 °FPassing clouds.14 mph59%29.86 "HgN/A
2:30 PM90 °FScattered clouds.13 mph59%29.86 "HgN/A
2:00 PM88 °FBroken clouds.13 mph62%29.86 "HgN/A
1:30 PM90 °FPartly sunny.13 mph59%29.89 "HgN/A
1:00 PM90 °FScattered clouds.10 mph59%29.89 "HgN/A
12:30 PM88 °FPartly sunny.12 mph62%29.92 "HgN/A
12:00 PM88 °FPartly sunny.10 mph62%29.92 "HgN/A
11:30 AM88 °FPartly sunny.8 mph62%29.95 "HgN/A
11:00 AM88 °FPartly sunny.7 mph66%29.95 "HgN/A
10:30 AM86 °FPartly sunny.7 mph70%29.95 "HgN/A
10:00 AM86 °FPartly sunny.3 mph66%29.95 "HgN/A
9:30 AM84 °FPassing clouds.5 mph74%29.95 "HgN/A
9:00 AM82 °FSunny.3 mph74%29.95 "Hg10 mi
8:30 AM79 °FSunny.No wind84%29.95 "Hg10 mi
8:00 AM77 °FSunny.1 mph89%29.92 "Hg10 mi
7:30 AM73 °FPassing clouds.No wind100%29.92 "HgN/A
7:00 AM72 °FScattered clouds.No wind100%29.92 "HgN/A
6:30 AM70 °FSunny.No wind100%29.92 "Hg10 mi
6:00 AM70 °FClear.No wind100%29.92 "Hg10 mi
5:30 AM70 °FClear.No wind100%29.89 "Hg10 mi
5:00 AM70 °FClear.No wind100%29.89 "Hg10 mi
4:30 AM72 °FClear.No wind94%29.89 "Hg10 mi
4:00 AM72 °FClear.No wind100%29.89 "Hg10 mi
3:30 AM72 °FClear.No wind100%29.89 "Hg10 mi
3:00 AM72 °FClear.No wind100%29.89 "Hg10 mi
2:30 AM72 °FClear.No wind100%29.89 "Hg10 mi
2:00 AM73 °FClear.No wind94%29.89 "Hg10 mi
1:30 AM73 °FClear.No wind94%29.92 "Hg10 mi
1:00 AM75 °FClear.1 mph89%29.92 "Hg10 mi
12:30 AM75 °FClear.1 mph94%29.92 "HgN/A
12:00 AM75 °FClear.2 mph94%29.95 "Hg10 mi
11:30 PM
Sat, Sep 24
77 °FClear.3 mph89%29.95 "Hg10 mi
11:00 PM77 °FClear.2 mph89%29.95 "Hg10 mi
10:30 PM77 °FClear.3 mph89%29.95 "Hg10 mi
10:00 PM79 °FClear.3 mph84%29.95 "Hg10 mi
9:30 PM79 °FClear.6 mph84%29.95 "Hg10 mi
9:00 PM79 °FClear.3 mph84%29.95 "Hg10 mi
8:30 PM79 °FClear.5 mph84%29.92 "Hg10 mi
8:00 PM81 °FClear.6 mph79%29.92 "Hg10 mi
7:30 PM81 °FClear.6 mph79%29.92 "Hg10 mi
7:00 PM82 °FClear.6 mph74%29.92 "Hg10 mi
Weather by CustomWeather, © 2016

See weather overviewHow to use our weather pages